Location: Los Gatos B&B
(42.6926°N, 77.0646°W)
Time: 00:25:21
(UTC-04:00)

SL-16 R/B - Visible Passes

Search period start: 01 May 2017 00:00
Search period end: 11 May 2017 00:00
Orbit: 840 x 850 km, 71.0° (Epoch: 29 April)

Date Brightness Start Highest point End Pass type
(mag) Time Alt. Az. Time Alt. Az. Time Alt. Az.
01 May 3.7 00:35:09 28° W 00:36:33 31° NW 00:41:35 10° N visible
01 May 2.7 22:38:42 40° E 22:38:42 40° E 22:43:33 10° NE visible
02 May 3.7 00:20:31 26° W 00:22:28 32° NW 00:27:32 10° N visible
02 May 2.6 22:23:54 39° ESE 22:24:12 39° ESE 22:29:28 10° NE visible
03 May 3.7 00:05:41 22° W 00:08:22 33° NW 00:13:29 10° N visible
03 May 2.7 22:08:52 34° SE 22:10:09 38° ESE 22:15:22 10° NE visible
03 May 3.6 23:50:38 17° WSW 23:54:17 34° NW 23:59:27 10° N visible
04 May 2.7 21:53:29 24° SSE 21:56:06 37° ESE 22:01:16 10° NE visible
04 May 3.6 23:35:13 11° WSW 23:40:12 35° NW 23:45:24 10° N visible
05 May 2.8 21:37:29 13° SSE 21:42:02 35° ESE 21:47:10 10° NE visible
05 May 3.6 23:20:55 10° WSW 23:26:07 36° WNW 23:31:21 10° N visible
06 May 2.8 21:22:56 10° SSE 21:27:59 34° ESE 21:33:04 10° NE visible
06 May 3.6 23:06:48 10° SW 23:12:01 37° WNW 23:17:18 10° N visible
07 May 2.9 21:08:55 10° SSE 21:13:55 33° ESE 21:18:57 10° NE visible
07 May 3.6 22:52:40 10° SW 22:57:56 38° WNW 23:03:15 10° N visible
08 May 2.9 20:54:55 10° SSE 20:59:52 32° ESE 21:04:51 10° NE visible
08 May 3.6 22:38:33 10° SW 22:43:50 39° WNW 22:49:11 10° N visible
09 May 3.0 20:40:55 10° SSE 20:45:48 31° ESE 20:50:44 10° NE visible
09 May 3.5 22:24:26 10° SW 22:29:46 40° WNW 22:35:08 10° NNE visible
10 May 3.5 22:10:19 10° SW 22:15:40 42° WNW 22:21:04 10° NNE visible
